When you browse on this site, cookies collect data to enhance your experience and personalize the content and advertising you see.
Visit our Privacy Policy to learn more. By continuing to use the site, you agree to this use of cookies and data.
  • Em Portugal
  • Lista de países
  • Para 7 dias
  • Temperatura da água
  • Mapas de satélite
  • Mapa do tempo
  • Widgets de tempo
  • user-avatar
    Iniciar Sessão

    Previsão horária em Kamionka

    Hoje, 18 Dezembro, Terça-feira

    Tempo Temperatura Precipitação Vento Pressão Humidade
    00:00 -4°C° 0 mm 2 m/s 710 mmHg 91%
    01:00 -2°C° 0 mm 1 m/s 710 mmHg 92%
    02:00 -2°C° 0 mm 1 m/s 710 mmHg 92%
    03:00 -4°C° 0 mm 2 m/s 710 mmHg 92%
    04:00 -3°C° 0 mm 2 m/s 710 mmHg 92%
    05:00 -3°C° 0 mm 2 m/s 710 mmHg 92%
    06:00 -3°C° 0 mm 2 m/s 710 mmHg 92%
    07:00 -3°C° 0 mm 2 m/s 711 mmHg 92%
    08:00 -3°C° 0 mm 2 m/s 711 mmHg 91%
    09:00 -2°C° 0 mm 2 m/s 711 mmHg 91%
    10:00 -2°C° 0 mm 2 m/s 711 mmHg 90%
    11:00 +1°C° 0 mm 1 m/s 711 mmHg 90%
    12:00 +1°C° 0 mm 1 m/s 711 mmHg 90%
    13:00 +2°C° 0 mm 1 m/s 711 mmHg 90%
    14:00 +1°C° 0 mm 1 m/s 711 mmHg 90%
    15:00 0°C° 0 mm 1 m/s 711 mmHg 91%
    16:00 0°C° 0 mm 1 m/s 711 mmHg 92%
    17:00 -1°C° 0 mm 1 m/s 711 mmHg 91%
    18:00 -1°C° 0 mm 1 m/s 711 mmHg 91%
    19:00 -2°C° 0 mm 1 m/s 710 mmHg 91%
    20:00 -4°C° 0 mm 2 m/s 710 mmHg 91%
    21:00 -4°C° 0 mm 2 m/s 710 mmHg 90%
    22:00 -4°C° 0 mm 2 m/s 710 mmHg 90%
    23:00 -4°C° 0 mm 2 m/s 710 mmHg 90%

    Amanhã, 19 Dezembro, Quarta-feira

    Tempo Temperatura Precipitação Vento Pressão Humidade
    00:00 -5°C° 0 mm 2 m/s 710 mmHg 90%
    01:00 -5°C° 0 mm 2 m/s 709 mmHg 90%
    02:00 -5°C° 0 mm 2 m/s 709 mmHg 90%
    03:00 -6°C° 0 mm 3 m/s 709 mmHg 90%
    04:00 -6°C° 0 mm 3 m/s 708 mmHg 90%
    05:00 -6°C° 0 mm 3 m/s 708 mmHg 89%
    06:00 -6°C° 0 mm 3 m/s 708 mmHg 89%
    07:00 -6°C° 0 mm 3 m/s 708 mmHg 88%
    08:00 -5°C° 0 mm 3 m/s 708 mmHg 85%
    09:00 -5°C° 0 mm 4 m/s 708 mmHg 83%
    10:00 -4°C° 0 mm 4 m/s 708 mmHg 80%
    11:00 -4°C° 0 mm 4 m/s 707 mmHg 79%
    12:00 -3°C° 0 mm 4 m/s 707 mmHg 78%
    13:00 -4°C° 0 mm 5 m/s 707 mmHg 76%
    14:00 -4°C° 0 mm 4 m/s 707 mmHg 78%
    15:00 -4°C° 0 mm 4 m/s 706 mmHg 80%
    16:00 -5°C° 0 mm 4 m/s 706 mmHg 82%
    17:00 -5°C° 0 mm 4 m/s 706 mmHg 82%
    18:00 -5°C° 0 mm 4 m/s 706 mmHg 82%
    19:00 -5°C° 0 mm 4 m/s 705 mmHg 82%
    20:00 -5°C° 0 mm 4 m/s 705 mmHg 81%
    21:00 -5°C° 0 mm 4 m/s 705 mmHg 81%
    22:00 -5°C° 0 mm 4 m/s 705 mmHg 80%
    23:00 -5°C° 0 mm 4 m/s 705 mmHg 80%

    Depois de amanhã, 20 Dezembro, Quinta-feira

    Tempo Temperatura Precipitação Vento Pressão Humidade
    00:00 -7°C° 0 mm 4 m/s 705 mmHg 80%
    01:00 -7°C° 0 mm 4 m/s 705 mmHg 80%
    02:00 -7°C° 0 mm 4 m/s 705 mmHg 80%
    03:00 -6°C° 0 mm 3 m/s 704 mmHg 81%
    04:00 -6°C° 0 mm 3 m/s 704 mmHg 81%
    05:00 -7°C° 0 mm 3 m/s 704 mmHg 81%
    06:00 -7°C° 0 mm 3 m/s 704 mmHg 81%
    07:00 -7°C° 0 mm 3 m/s 704 mmHg 81%
    08:00 -6°C° 0 mm 3 m/s 704 mmHg 80%
    09:00 -6°C° 0 mm 3 m/s 705 mmHg 80%
    10:00 -6°C° 0 mm 3 m/s 705 mmHg 79%
    11:00 -5°C° 0.2 mm 3 m/s 705 mmHg 80%
    12:00 -5°C° 0.2 mm 3 m/s 705 mmHg 81%
    13:00 -4°C° 0.2 mm 3 m/s 704 mmHg 82%
    14:00 -4°C° 0.2 mm 3 m/s 704 mmHg 84%
    15:00 -4°C° 0.2 mm 3 m/s 704 mmHg 86%
    16:00 -4°C° 0.2 mm 3 m/s 704 mmHg 88%
    17:00 -4°C° 0 mm 3 m/s 705 mmHg 89%
    18:00 -4°C° 0 mm 3 m/s 705 mmHg 89%
    19:00 -4°C° 0 mm 3 m/s 705 mmHg 90%
    20:00 -2°C° 0 mm 3 m/s 705 mmHg 90%
    21:00 -2°C° 0 mm 3 m/s 705 mmHg 90%
    22:00 -2°C° 0 mm 3 m/s 706 mmHg 90%
    23:00 -2°C° 0 mm 3 m/s 706 mmHg 91%

    21 Dezembro, Sexta-feira

    Tempo Temperatura Precipitação Vento Pressão Humidade
    00:00 -2°C° 0 mm 3 m/s 706 mmHg 91%
    01:00 -2°C° 0 mm 3 m/s 706 mmHg 91%
    02:00 -2°C° 0 mm 3 m/s 706 mmHg 91%
    03:00 -3°C° 0 mm 4 m/s 706 mmHg 91%
    04:00 -3°C° 0 mm 4 m/s 706 mmHg 91%
    05:00 -3°C° 0 mm 4 m/s 706 mmHg 90%
    06:00 -3°C° 0 mm 4 m/s 706 mmHg 90%
    07:00 -3°C° 0 mm 4 m/s 706 mmHg 89%
    08:00 -2°C° 0 mm 4 m/s 705 mmHg 88%
    09:00 -2°C° 0 mm 4 m/s 705 mmHg 88%
    10:00 -2°C° 0 mm 4 m/s 705 mmHg 87%
    11:00 -2°C° 0 mm 4 m/s 704 mmHg 86%
    12:00 -1°C° 0 mm 5 m/s 704 mmHg 85%
    13:00 -1°C° 0 mm 5 m/s 703 mmHg 85%
    14:00 -1°C° 0.3 mm 5 m/s 702 mmHg 85%
    15:00 -2°C° 0.3 mm 6 m/s 702 mmHg 85%
    16:00 -2°C° 0.3 mm 6 m/s 701 mmHg 85%
    17:00 -2°C° 0.9 mm 7 m/s 700 mmHg 85%
    18:00 -2°C° 0.9 mm 7 m/s 699 mmHg 84%
    19:00 -2°C° 0.9 mm 7 m/s 699 mmHg 84%
    20:00 -1°C° 0.9 mm 7 m/s 699 mmHg 85%
    21:00 0°C° 0.9 mm 7 m/s 698 mmHg 86%
    22:00 +2°C° 0.9 mm 7 m/s 698 mmHg 87%
    23:00 +2°C° 0.1 mm 7 m/s 698 mmHg 88%

    22 Dezembro, Sábado

    Tempo Temperatura Precipitação Vento Pressão Humidade
    00:00 +2°C° 0.1 mm 6 m/s 698 mmHg 89%
    01:00 +2°C° 0.1 mm 6 m/s 699 mmHg 90%
    02:00 +1°C° 0.1 mm 6 m/s 699 mmHg 89%
    03:00 +1°C° 0.1 mm 5 m/s 699 mmHg 88%
    04:00 0°C° 0.1 mm 5 m/s 700 mmHg 87%
    05:00 0°C° 0 mm 5 m/s 700 mmHg 86%
    06:00 -1°C° 0 mm 6 m/s 701 mmHg 84%
    07:00 -1°C° 0 mm 6 m/s 701 mmHg 83%
    08:00 -1°C° 0 mm 6 m/s 701 mmHg 83%
    09:00 +1°C° 0 mm 6 m/s 701 mmHg 82%
    10:00 +1°C° 0 mm 6 m/s 702 mmHg 82%
    11:00 +1°C° 0 mm 6 m/s 701 mmHg 81%
    12:00 +2°C° 0 mm 5 m/s 701 mmHg 81%
    13:00 +2°C° 0 mm 5 m/s 701 mmHg 81%
    14:00 +2°C° 0 mm 5 m/s 700 mmHg 82%
    15:00 +2°C° 0 mm 5 m/s 700 mmHg 84%
    16:00 +2°C° 0 mm 6 m/s 699 mmHg 86%
    17:00 +2°C° 0.3 mm 6 m/s 699 mmHg 86%
    18:00 +3°C° 0.3 mm 6 m/s 699 mmHg 87%
    19:00 +3°C° 0.3 mm 6 m/s 699 mmHg 88%
    20:00 +2°C° 0 mm 6 m/s 700 mmHg 85%
    21:00 +2°C° 0 mm 6 m/s 700 mmHg 83%
    22:00 +1°C° 0 mm 6 m/s 700 mmHg 81%
    23:00 0°C° 0.1 mm 7 m/s 701 mmHg 80%

    23 Dezembro, Domingo

    Tempo Temperatura Precipitação Vento Pressão Humidade
    00:00 0°C° 0.1 mm 7 m/s 701 mmHg 80%
    01:00 0°C° 0.1 mm 8 m/s 702 mmHg 79%
    02:00 0°C° 0.1 mm 7 m/s 702 mmHg 80%
    03:00 0°C° 0.1 mm 7 m/s 702 mmHg 81%
    04:00 0°C° 0.1 mm 7 m/s 703 mmHg 82%
    05:00 +1°C° 0 mm 6 m/s 703 mmHg 83%
    06:00 -1°C° 0 mm 6 m/s 704 mmHg 83%
    07:00 -1°C° 0 mm 6 m/s 704 mmHg 84%
    08:00 -1°C° 0.1 mm 6 m/s 704 mmHg 83%
    09:00 +1°C° 0.1 mm 6 m/s 705 mmHg 82%
    10:00 +1°C° 0.1 mm 6 m/s 705 mmHg 81%
    11:00 0°C° 0.1 mm 7 m/s 706 mmHg 79%
    12:00 0°C° 0.1 mm 7 m/s 706 mmHg 77%
    13:00 +2°C° 0.1 mm 7 m/s 706 mmHg 75%
    14:00 0°C° 0 mm 7 m/s 706 mmHg 76%
    15:00 +1°C° 0 mm 6 m/s 707 mmHg 77%
    16:00 +1°C° 0 mm 6 m/s 707 mmHg 79%
    17:00 -1°C° 0 mm 6 m/s 707 mmHg 80%
    18:00 0°C° 0 mm 5 m/s 708 mmHg 82%
    19:00 0°C° 0 mm 5 m/s 708 mmHg 84%
    20:00 -1°C° 0 mm 5 m/s 708 mmHg 85%
    21:00 -1°C° 0 mm 4 m/s 709 mmHg 86%
    22:00 -1°C° 0 mm 4 m/s 709 mmHg 87%
    23:00 -1°C° 0 mm 3 m/s 709 mmHg 88%
    Mostrar mais